This demonstration page uses our WeatherBlox Daily Observations layout. Learn more.

Left ArrowRight Arrow

38.80484, -77.04692

Hourly Observations for November 15, 2018

Temp ( °F °C ) Dew Point ( °F °C ) Humidity (%) Winds ( mph kmh ) Pressure ( in mb ) Visibility ( mi km ) Precip ( " mm )
12:52 am 00:52 Cloudy 39 3.9 22 -5.6 50 50 ENE 12 19 30.54 1034 10 16 0.00 0.00
1:52 am 01:52 Cloudy 39 3.9 22 -5.6 50 50 ENE 12 19 30.54 1034 10 16 0.00 0.00
2:52 am 02:52 Cloudy 39 3.9 22 -5.6 50 50 E 13 20 30.53 1034 10 16 0.00 0.00
3:52 am 03:52 Cloudy 39 3.9 22 -5.6 50 50 ENE 9 15 30.52 1034 10 16 0.00 0.00
4:48 am 04:48 Cloudy 39 4 23 -5 52 52 E 12 19 30.50 1033 10 16 0.00 0.03
4:52 am 04:52 Cloudy 39 3.9 23 -5 53 53 ENE 12 19 30.49 1033 10 16 0.00 0.03
5:11 am 05:11 Cloudy with Light Rain 38 3.3 23 -5 55 55 ENE 15 24 30.50 1033 10 16 0.00 0.03
5:52 am 05:52 Cloudy 38 3.3 24 -4.4 57 57 NE 15 24 30.48 1032 10 16 0.00 0.03
5:59 am 05:59 Cloudy 38 3.3 24 -4.4 57 57 ENE 12 19 30.50 1033 10 16 0.00 0.03
6:18 am 06:18 Cloudy with Light Rain/Snow 37 2.8 24 -4.4 59 59 NE 10 17 30.50 1033 10 16 0.00 0.03
6:30 am 06:30 Cloudy 37 2.8 24 -4.4 59 59 ENE 12 19 30.50 1033 6 10 0.01 0.25
6:52 am 06:52 Cloudy 35 1.7 26 -3.3 70 70 NE 12 19 30.48 1032 4 6 0.03 0.76
6:57 am 06:57 Cloudy with Light Wintry Mix 34 1.1 26 -3.3 73 73 ENE 9 15 30.48 1032 2 3 0.01 0.25
7:14 am 07:14 Cloudy with Light Snow 33 0.6 27 -2.8 78 78 NE 12 19 30.48 1032 1 2 0.02 0.51
7:25 am 07:25 Cloudy with Light Snow 33 0.6 27 -2.8 78 78 NE 12 19 30.48 1032 1 1 0.03 0.76
7:35 am 07:35 Cloudy with Snow 32 0 28 -2.2 85 85 NNE 10 17 30.48 1032 1 1 0.05 1.27
7:42 am 07:42 Cloudy with Snow 32 0 28 -2.2 85 85 NE 9 15 30.48 1032 1 1 0.06 1.52
7:52 am 07:52 Cloudy with Snow 33 0.6 29 -1.7 85 85 NE 14 22 30.46 1031 1 1 0.08 2.03
8:10 am 08:10 Cloudy with Snow 33 0.6 29 -1.7 85 85 NE 14 22 30.45 1031 1 1 0.04 1.02
8:46 am 08:46 Cloudy with Light Snow 34 1 28 -2 81 81 NE 14 22 30.42 1030 2 3 0.09 2.29
8:52 am 08:52 Cloudy with Light Wintry Mix 33 0.6 29 -1.7 85 85 NE 16 26 30.42 1030 4 6 0.09 2.29
9:04 am 09:04 Cloudy with Light Rain/Snow 33 0.6 29 -1.7 85 85 NE 16 26 30.39 1029 5 8 0.01 0.25
9:30 am 09:30 Cloudy with Light Rain 33 0.6 29 -1.7 85 85 NE 14 22 30.39 1029 5 8 0.03 0.76
9:35 am 09:35 Cloudy with Rain 34 1.1 30 -1.1 85 85 NE 15 24 30.39 1029 5 8 0.04 1.02
9:50 am 09:50 Cloudy 34 1 30 -1 87 87 NE 15 24 30.39 1029 5 8 0.05 1.27
9:52 am 09:52 Cloudy 34 1.1 30 -1.1 85 85 NE 16 26 30.38 1029 5 8 0.05 1.27
10:06 am 10:06 Cloudy 34 1.1 30 -1.1 85 85 NNE 12 19 30.39 1029 3 5 0.02 0.51
10:42 am 10:42 Cloudy 34 1.1 30 -1.1 85 85 NE 15 24 30.36 1028 5 8 0.05 1.27
10:52 am 10:52 Cloudy with Mist and Fog 34 1.1 30 -1.1 85 85 NE 15 24 30.36 1028 3 4 0.06 1.52
11:06 am 11:06 Cloudy with Mist and Fog 34 1.1 30 -1.1 85 85 NNE 16 26 30.36 1028 4 6 0.02 0.51
11:52 am 11:52 Cloudy with Mist and Fog 35 1.7 31 -0.6 85 85 NE 14 22 30.29 1026 4 6 0.08 2.03
12:15 pm 12:15 Cloudy with Mist and Fog 35 1.7 31 -0.6 85 85 NE 17 28 30.24 1024 4 6 0.06 1.52
12:52 pm 12:52 Cloudy with Mist and Fog 35 1.7 32 0 89 89 NE 18 30 30.19 1022 4 6 0.15 3.81
1:10 pm 13:10 Cloudy with Rain 36 2.2 32 0 86 86 NE 18 30 30.18 1022 2 3 0.03 0.76
1:52 pm 13:52 Cloudy with Rain 36 2.2 33 0.6 89 89 NNE 17 28 30.12 1020 2 3 0.11 2.79
2:02 pm 14:02 Cloudy with Rain 36 2.2 33 0.6 89 89 NNE 20 31 30.12 1020 3 5 0.02 0.51
2:17 pm 14:17 Cloudy with Rain 36 2.2 33 0.6 89 89 NNE 20 31 30.09 1019 3 4 0.05 1.27
2:40 pm 14:40 Cloudy with Light Rain 36 2.2 33 0.6 89 89 NNE 20 31 30.06 1018 2 3 0.10 2.54
2:52 pm 14:52 Cloudy with Light Rain 36 2.2 33 0.6 89 89 NNE 21 33 30.06 1018 2 3 0.10 2.54
3:15 pm 15:15 Cloudy with Rain 36 2.2 33 0.6 89 89 NNE 22 35 30.03 1017 2 2 0.04 1.02
3:52 pm 15:52 Cloudy with Heavy Rain 36 2.2 33 0.6 89 89 NNE 18 30 30.05 1018 2 2 0.13 3.30
4:10 pm 16:10 Cloudy with Rain 36 2.2 33 0.6 89 89 NE 21 33 30.00 1016 2 3 0.07 1.78
4:22 pm 16:22 Cloudy with Light Rain 36 2.2 33 0.6 89 89 NNE 21 33 30.00 1016 3 5 0.08 2.03
4:52 pm 16:52 Cloudy with Light Rain 37 2.8 33 0.6 86 86 NNE 17 28 29.96 1015 5 8 0.11 2.79
5:16 pm 17:16 Cloudy with Light Rain 37 2.8 33 0.6 86 86 NNE 14 22 29.94 1014 10 16 0.00 0.03
5:37 pm 17:37 Cloudy with Light Rain 38 3.3 34 1.1 86 86 NNE 17 28 29.91 1013 10 16 0.00 0.03
5:52 pm 17:52 Cloudy with Light Rain 38 3.3 34 1.1 86 86 NE 22 35 29.90 1013 9 14 0.00 0.03
6:17 pm 18:17 Cloudy with Light Rain 38 3.3 35 1.7 89 89 NE 21 33 29.88 1012 6 10 0.00 0.03
6:52 pm 18:52 Cloudy with Light Rain 39 3.9 35 1.7 86 86 NNE 16 26 29.85 1011 5 8 0.00 0.03
7:08 pm 19:08 Cloudy with Light Rain 39 3.9 35 1.7 86 86 NNE 22 35 29.83 1010 3 5 0.01 0.25
7:16 pm 19:16 Cloudy with Light Rain 39 3.9 35 1.7 86 86 N 16 26 29.83 1010 3 4 0.02 0.51
7:35 pm 19:35 Cloudy with Rain 39 3.9 36 2.2 89 89 NNE 17 28 29.83 1010 3 5 0.04 1.02
7:52 pm 19:52 Cloudy with Light Rain 39 3.9 36 2.2 89 89 NNE 16 26 29.79 1009 4 6 0.05 1.27
8:06 pm 20:06 Cloudy with Light Rain 39 3.9 36 2.2 89 89 NNE 16 26 29.77 1008 4 6 0.01 0.25
8:39 pm 20:39 Cloudy with Light Rain 40 4.4 37 2.8 89 89 NNE 14 22 29.74 1007 7 11 0.02 0.51
8:41 pm 20:41 Cloudy with Light Rain 40 4.4 37 2.8 89 89 NNE 17 28 29.74 1007 7 11 0.02 0.51
8:52 pm 20:52 Cloudy with Light Rain 40 4.4 37 2.8 89 89 N 13 20 29.73 1007 7 11 0.02 0.51
9:47 pm 21:47 Cloudy with Rain 41 5 37 3 87 87 NNE 17 28 29.71 1006 3 4 0.03 0.76
9:52 pm 21:52 Cloudy with Light Rain 41 5 38 3.3 89 89 N 15 24 29.70 1006 3 5 0.04 1.02
10:09 pm 22:09 Cloudy with Light Rain 41 5 38 3.3 89 89 N 13 20 29.71 1006 7 11 0.00 0.03
10:15 pm 22:15 Cloudy with Light Rain 41 5 38 3.3 89 89 N 13 20 29.68 1005 8 13 0.00 0.03
10:43 pm 22:43 Cloudy with Light Rain 41 5 38 3.3 89 89 NNW 12 19 29.68 1005 7 11 0.00 0.03
10:52 pm 22:52 Cloudy with Light Rain 41 5 38 3.3 89 89 NNW 14 22 29.67 1005 7 11 0.00 0.03
11:07 pm 23:07 Cloudy with Light Rain 41 5 38 3.3 89 89 NW 13 20 29.68 1005 4 6 0.02 0.51
11:30 pm 23:30 Cloudy with Light Rain 41 5 38 3.3 89 89 WNW 12 19 29.68 1005 4 6 0.04 1.02
11:52 pm 23:52 Cloudy with Light Rain 39 3.9 36 2.2 89 89 NW 14 22 29.66 1005 4 6 0.05 1.27

Powered by AerisWeather